Location: College Park
(38.9810°N, 76.9370°W)
Time: 15:18:19
(UTC-04:00)

Vanguard 1 - Visible Passes

Search period start: 23 April 2018 00:00
Search period end: 03 May 2018 00:00
Orbit: 650 x 3833 km, 34.2° (Epoch: 22 April)

Date Brightness Start Highest point End Pass type
(mag) Time Alt. Az. Time Alt. Az. Time Alt. Az.
23 Apr 10.8 03:32:02 46° SSE 03:32:02 46° SSE 03:40:42 10° ESE visible
23 Apr 12.1 05:45:32 10° WSW 05:52:27 27° SSW 06:03:21 10° SSE visible
24 Apr 10.8 03:52:14 41° S 03:52:14 41° S 04:01:38 10° SE visible
25 Apr 11.1 04:12:30 33° SSW 04:13:03 34° SSW 04:22:18 10° SE visible
25 Apr 11.3 21:31:12 10° SSW 21:32:36 14° S 21:32:36 14° S visible
26 Apr 12.5 02:20:05 12° ESE 02:20:05 12° ESE 02:20:36 10° ESE visible
26 Apr 11.4 04:32:51 26° SW 04:34:07 27° SSW 04:42:37 10° SSE visible
26 Apr 11.1 21:51:08 10° SSW 21:53:04 18° SSW 21:53:04 18° SSW visible
27 Apr 12.4 02:40:30 13° SE 02:40:30 13° SE 02:41:32 10° SE visible
27 Apr 11.7 04:53:16 18° SW 04:55:12 20° SSW 05:02:23 10° SSE visible
27 Apr 11.1 22:11:31 10° SW 22:13:29 19° SSW 22:13:29 19° SSW visible
28 Apr 12.4 03:00:59 14° SE 03:00:59 14° SE 03:02:17 10° SE visible
28 Apr 12.0 05:13:46 12° SW 05:16:21 14° SSW 05:21:14 10° S visible
28 Apr 11.2 22:32:09 10° SW 22:33:50 19° SW 22:33:50 19° SW visible
29 Apr 12.4 03:21:32 13° SSE 03:21:32 13° SSE 03:22:43 10° SE visible
29 Apr 11.0 20:33:00 10° SSW 20:37:48 21° SSE 20:41:22 10° ESE visible
29 Apr 11.4 22:52:56 10° WSW 22:54:07 16° WSW 22:54:07 16° WSW visible
30 Apr 12.5 03:42:08 11° SSE 03:42:08 11° SSE 03:42:42 10° SSE visible
30 Apr 10.6 20:53:16 10° SW 20:58:41 28° SSE 21:01:36 16° ESE visible
30 Apr 11.8 23:13:50 10° WSW 23:14:21 13° WSW 23:14:21 13° WSW visible
01 May 10.2 21:13:52 10° SW 21:19:35 36° SSE 21:21:47 23° ESE visible
02 May 9.9 21:34:41 10° WSW 21:40:27 43° S 21:41:54 33° SE visible
